TimeEST,TemperatureF,Dew PointF,Humidity,Sea Level PressureIn,VisibilityMPH,Wind Direction,Wind SpeedMPH,Gust SpeedMPH,PrecipitationIn,Events,Conditions,WindDirDegrees,DateUTC
12:53 AM,30.0,27.0,88,30.51,10.0,Calm,Calm,-,N/A,,Mostly Cloudy,0,2012-11-17 05:53:00
1:53 AM,28.9,27.0,92,30.53,10.0,Calm,Calm,-,N/A,,Clear,0,2012-11-17 06:53:00
2:53 AM,28.0,26.1,92,30.55,10.0,Calm,Calm,-,N/A,,Partly Cloudy,0,2012-11-17 07:53:00
3:53 AM,30.0,25.0,82,30.57,10.0,NNW,10.4,-,N/A,,Clear,340,2012-11-17 08:53:00
4:53 AM,30.0,25.0,82,30.61,10.0,NNW,6.9,-,N/A,,Clear,330,2012-11-17 09:53:00
5:53 AM,28.9,23.0,78,30.63,10.0,NNW,5.8,-,N/A,,Mostly Cloudy,340,2012-11-17 10:53:00
6:53 AM,30.0,23.0,75,30.64,10.0,NW,3.5,-,N/A,,Overcast,320,2012-11-17 11:53:00
8:53 AM,30.9,23.0,72,30.68,10.0,North,6.9,-,N/A,,Overcast,360,2012-11-17 13:53:00
9:53 AM,33.1,21.0,61,30.69,10.0,Calm,Calm,-,N/A,,Partly Cloudy,0,2012-11-17 14:53:00
10:53 AM,35.1,23.0,61,30.68,10.0,NE,4.6,-,N/A,,Clear,50,2012-11-17 15:53:00
11:53 AM,35.1,24.1,64,30.67,10.0,NNE,4.6,-,N/A,,Clear,20,2012-11-17 16:53:00
12:53 PM,37.0,25.0,62,30.66,10.0,NE,4.6,-,N/A,,Clear,40,2012-11-17 17:53:00
2:53 PM,37.0,25.0,62,30.66,10.0,North,4.6,-,N/A,,Clear,10,2012-11-17 19:53:00
3:53 PM,36.0,25.0,64,30.67,10.0,NNE,4.6,-,N/A,,Clear,20,2012-11-17 20:53:00
4:53 PM,33.1,24.1,70,30.68,10.0,NW,4.6,-,N/A,,Clear,320,2012-11-17 21:53:00
6:53 PM,27.0,21.9,81,30.70,10.0,WNW,3.5,-,N/A,,Clear,290,2012-11-17 23:53:00
7:53 PM,28.0,21.9,78,30.70,10.0,WNW,4.6,-,N/A,,Clear,300,2012-11-18 00:53:00
8:53 PM,27.0,21.9,81,30.71,10.0,Calm,Calm,-,N/A,,Clear,0,2012-11-18 01:53:00
9:53 PM,25.0,21.0,85,30.70,10.0,West,4.6,-,N/A,,Clear,260,2012-11-18 02:53:00
11:53 PM,24.1,19.9,84,30.71,10.0,Calm,Calm,-,N/A,,Clear,0,2012-11-18 04:53:00